Location: Reutlingen
(48.4911°N, 9.2587°E)
Time: 18:02:21
(UTC+01:00)

ISS - Visible Passes

Search period start: 20 November 2017 00:00
Search period end: 30 November 2017 00:00
Orbit: 402 x 407 km, 51.6° (Epoch: 21 November)

Date Brightness Start Highest point End Pass type
(mag) Time Alt. Az. Time Alt. Az. Time Alt. Az.
27 Nov -1.1 19:07:01 10° SSW 19:07:38 14° SSW 19:07:38 14° SSW visible
28 Nov -2.1 18:15:16 10° S 18:17:35 20° SE 18:17:35 20° SE visible
29 Nov -1.4 17:24:15 10° SSE 17:25:34 12° SE 17:26:55 10° ESE visible
29 Nov -2.1 18:58:15 10° SW 19:00:07 30° SW 19:00:07 30° SW visible
